TimeEST,TemperatureF,Dew PointF,Humidity,Sea Level PressureIn,VisibilityMPH,Wind Direction,Wind SpeedMPH,Gust SpeedMPH,PrecipitationIn,Events,Conditions,WindDirDegrees,DateUTC
12:53 AM,24.1,10.9,57,30.22,10.0,NNW,8.1,-,N/A,,Partly Cloudy,330,2013-01-24 05:53:00
1:53 AM,23.0,10.0,58,30.27,10.0,NNW,12.7,19.6,N/A,,Overcast,340,2013-01-24 06:53:00
2:53 AM,21.0,10.9,65,30.31,10.0,NNW,9.2,-,N/A,,Mostly Cloudy,340,2013-01-24 07:53:00
3:23 AM,19.4,10.4,68,30.30,10.0,NW,6.9,-,N/A,,Mostly Cloudy,320,2013-01-24 08:23:00
3:38 AM,19.4,10.4,68,30.31,10.0,NNW,8.1,-,N/A,,Mostly Cloudy,340,2013-01-24 08:38:00
3:53 AM,19.9,10.9,68,30.35,10.0,NNW,8.1,-,N/A,,Overcast,330,2013-01-24 08:53:00
4:14 AM,19.4,12.2,74,30.34,1.8,North,12.7,17.3,0.00,Snow,Light Snow,360,2013-01-24 09:14:00
4:26 AM,19.4,14.0,80,30.34,3.0,North,11.5,-,0.00,Snow,Light Snow,10,2013-01-24 09:26:00
4:53 AM,18.0,9.0,68,30.38,10.0,North,13.8,-,0.00,,Scattered Clouds,10,2013-01-24 09:53:00
5:53 AM,15.1,7.0,70,30.43,10.0,North,10.4,-,N/A,,Clear,10,2013-01-24 10:53:00
6:53 AM,14.0,6.1,71,30.49,10.0,North,9.2,-,N/A,,Mostly Cloudy,10,2013-01-24 11:53:00
7:03 AM,14.0,6.8,73,30.46,10.0,North,9.2,-,N/A,,Scattered Clouds,10,2013-01-24 12:03:00
7:53 AM,12.0,5.0,73,30.52,10.0,North,4.6,-,N/A,,Clear,360,2013-01-24 12:53:00
8:53 AM,14.0,7.0,74,30.54,10.0,North,8.1,-,N/A,,Clear,360,2013-01-24 13:53:00
9:53 AM,17.1,9.0,71,30.57,10.0,North,9.2,-,N/A,,Clear,10,2013-01-24 14:53:00
10:53 AM,19.9,8.1,60,30.59,10.0,Calm,Calm,-,N/A,,Clear,0,2013-01-24 15:53:00
11:53 AM,21.9,3.9,46,30.60,10.0,NNE,6.9,-,N/A,,Clear,30,2013-01-24 16:53:00
12:53 PM,24.1,3.0,40,30.57,10.0,NNE,5.8,-,N/A,,Clear,30,2013-01-24 17:53:00
1:53 PM,25.0,1.9,37,30.53,10.0,NE,4.6,-,N/A,,Clear,50,2013-01-24 18:53:00
2:53 PM,25.0,-2.0,31,30.52,10.0,ENE,4.6,-,N/A,,Clear,70,2013-01-24 19:53:00
3:53 PM,25.0,-5.1,27,30.52,10.0,Variable,3.5,-,N/A,,Clear,0,2013-01-24 20:53:00
4:53 PM,25.0,-5.1,27,30.51,10.0,ENE,6.9,-,N/A,,Clear,70,2013-01-24 21:53:00
5:53 PM,23.0,-4.0,31,30.49,10.0,ESE,8.1,-,N/A,,Clear,110,2013-01-24 22:53:00
6:53 PM,23.0,-2.9,32,30.49,10.0,East,9.2,-,N/A,,Clear,90,2013-01-24 23:53:00
7:53 PM,21.9,-4.0,32,30.50,10.0,ESE,8.1,-,N/A,,Clear,120,2013-01-25 00:53:00
8:53 PM,21.9,-2.9,34,30.47,10.0,East,5.8,-,N/A,,Clear,100,2013-01-25 01:53:00
9:53 PM,21.9,-2.0,35,30.44,10.0,ESE,8.1,-,N/A,,Clear,110,2013-01-25 02:53:00
10:53 PM,21.9,-2.0,35,30.41,10.0,ESE,11.5,-,N/A,,Clear,120,2013-01-25 03:53:00
11:53 PM,21.9,-0.9,37,30.39,10.0,ESE,12.7,-,N/A,,Clear,120,2013-01-25 04:53:00